• In Deutschland
  • Länderverzeichnis
  • Für 7 Tage
  • Wassertemperatur
  • Satellitenkarten
  • Wetterkarte
  • Widgets
  • user-avatar
    Anmelden

    Stündliche Wetter Göppingen

    Heute, 23 Oktober, Montag

    Zeit Temperatur Niederschläge Wind Luftdruck Luftfeuchtigkeit
    00:00 +6°C° 0,1 mm 4 m/S 733 mmHg 89%
    01:00 +6°C° 0,1 mm 4 m/S 733 mmHg 90%
    02:00 +6°C° 0,1 mm 4 m/S 733 mmHg 90%
    03:00 +6°C° 0,1 mm 4 m/S 733 mmHg 90%
    04:00 +5°C° 0,1 mm 4 m/S 733 mmHg 90%
    05:00 +6°C° 0,1 mm 4 m/S 733 mmHg 90%
    06:00 +6°C° 0,1 mm 4 m/S 733 mmHg 91%
    07:00 +6°C° 0,1 mm 4 m/S 733 mmHg 91%
    08:00 +6°C° 0,1 mm 4 m/S 734 mmHg 89%
    09:00 +7°C° 0,1 mm 5 m/S 734 mmHg 87%
    10:00 +7°C° 0,1 mm 5 m/S 734 mmHg 86%
    11:00 +8°C° 0,1 mm 5 m/S 734 mmHg 83%
    12:00 +8°C° 0,1 mm 5 m/S 734 mmHg 81%
    13:00 +9°C° 0,1 mm 5 m/S 735 mmHg 79%
    14:00 +9°C° 0,1 mm 5 m/S 735 mmHg 80%
    15:00 +8°C° 0,1 mm 5 m/S 735 mmHg 82%
    16:00 +8°C° 0,1 mm 4 m/S 735 mmHg 83%
    17:00 +8°C° 0,1 mm 4 m/S 735 mmHg 86%
    18:00 +8°C° 0,1 mm 3 m/S 735 mmHg 89%
    19:00 +8°C° 0,1 mm 3 m/S 736 mmHg 92%
    20:00 +8°C° 0,1 mm 3 m/S 736 mmHg 93%
    21:00 +8°C° 0,1 mm 3 m/S 736 mmHg 93%
    22:00 +8°C° 0,1 mm 3 m/S 736 mmHg 94%
    23:00 +8°C° 0,1 mm 3 m/S 737 mmHg 94%

    Morgen, 24 Oktober, Dienstag

    Zeit Temperatur Niederschläge Wind Luftdruck Luftfeuchtigkeit
    00:00 +8°C° 0,1 mm 2 m/S 737 mmHg 94%
    01:00 +8°C° 0,1 mm 2 m/S 737 mmHg 94%
    02:00 +8°C° 0,1 mm 2 m/S 737 mmHg 94%
    03:00 +9°C° 0,1 mm 2 m/S 737 mmHg 94%
    04:00 +9°C° 0,1 mm 2 m/S 737 mmHg 94%
    05:00 +9°C° 0,2 mm 2 m/S 737 mmHg 94%
    06:00 +9°C° 0,2 mm 2 m/S 737 mmHg 93%
    07:00 +9°C° 0,2 mm 2 m/S 737 mmHg 93%
    08:00 +9°C° 0,1 mm 2 m/S 737 mmHg 92%
    09:00 +10°C° 0,1 mm 2 m/S 737 mmHg 91%
    10:00 +10°C° 0,1 mm 2 m/S 737 mmHg 90%
    11:00 +12°C° 0 mm 3 m/S 737 mmHg 87%
    12:00 +13°C° 0 mm 3 m/S 737 mmHg 83%
    13:00 +14°C° 0 mm 3 m/S 737 mmHg 80%
    14:00 +15°C° 0 mm 2 m/S 737 mmHg 81%
    15:00 +15°C° 0 mm 2 m/S 737 mmHg 83%
    16:00 +15°C° 0 mm 2 m/S 737 mmHg 84%
    17:00 +15°C° 0 mm 2 m/S 737 mmHg 87%
    18:00 +14°C° 0 mm 2 m/S 737 mmHg 89%
    19:00 +13°C° 0 mm 2 m/S 738 mmHg 91%
    20:00 +13°C° 0 mm 2 m/S 738 mmHg 92%
    21:00 +12°C° 0 mm 1 m/S 738 mmHg 92%
    22:00 +12°C° 0 mm 1 m/S 738 mmHg 93%
    23:00 +12°C° 0 mm 1 m/S 737 mmHg 93%

    übermorgen, 25 Oktober, Mittwoch

    Zeit Temperatur Niederschläge Wind Luftdruck Luftfeuchtigkeit
    00:00 +10°C° 0 mm 2 m/S 737 mmHg 93%
    01:00 +10°C° 0 mm 2 m/S 737 mmHg 93%
    02:00 +11°C° 0 mm 1 m/S 737 mmHg 93%
    03:00 +11°C° 0 mm 1 m/S 737 mmHg 93%
    04:00 +10°C° 0 mm 1 m/S 736 mmHg 93%
    05:00 +10°C° 0 mm 1 m/S 737 mmHg 92%
    06:00 +10°C° 0 mm 1 m/S 737 mmHg 92%
    07:00 +10°C° 0 mm 1 m/S 737 mmHg 92%
    08:00 +12°C° 0 mm 1 m/S 737 mmHg 87%
    09:00 +14°C° 0 mm 1 m/S 737 mmHg 82%
    10:00 +15°C° 0 mm 1 m/S 737 mmHg 77%
    11:00 +17°C° 0 mm 2 m/S 737 mmHg 74%
    12:00 +18°C° 0 mm 2 m/S 737 mmHg 71%
    13:00 +19°C° 0 mm 2 m/S 737 mmHg 68%
    14:00 +19°C° 0 mm 2 m/S 737 mmHg 71%
    15:00 +20°C° 0 mm 1 m/S 737 mmHg 74%
    16:00 +19°C° 0 mm 1 m/S 736 mmHg 77%
    17:00 +18°C° 0 mm 1 m/S 737 mmHg 81%
    18:00 +15°C° 0 mm 1 m/S 737 mmHg 86%
    19:00 +14°C° 0 mm 1 m/S 737 mmHg 90%
    20:00 +14°C° 0 mm 1 m/S 737 mmHg 90%
    21:00 +13°C° 0 mm 1 m/S 737 mmHg 91%
    22:00 +13°C° 0 mm 1 m/S 737 mmHg 91%
    23:00 +13°C° 0 mm 1 m/S 737 mmHg 91%

    26 Oktober, Donnerstag

    Zeit Temperatur Niederschläge Wind Luftdruck Luftfeuchtigkeit
    00:00 +13°C° 0 mm 1 m/S 737 mmHg 91%
    01:00 +12°C° 0 mm 1 m/S 737 mmHg 92%
    02:00 +12°C° 0 mm 1 m/S 737 mmHg 92%
    03:00 +12°C° 0 mm 1 m/S 737 mmHg 92%
    04:00 +12°C° 0 mm 2 m/S 737 mmHg 91%
    05:00 +10°C° 0 mm 2 m/S 737 mmHg 91%
    06:00 +10°C° 0 mm 2 m/S 737 mmHg 90%
    07:00 +10°C° 0 mm 2 m/S 736 mmHg 90%
    08:00 +13°C° 0 mm 2 m/S 737 mmHg 83%
    09:00 +14°C° 0 mm 3 m/S 737 mmHg 77%
    10:00 +17°C° 0 mm 3 m/S 737 mmHg 70%
    11:00 +18°C° 0 mm 3 m/S 737 mmHg 66%
    12:00 +19°C° 0 mm 3 m/S 736 mmHg 63%
    13:00 +21°C° 0 mm 3 m/S 736 mmHg 59%
    14:00 +20°C° 0 mm 3 m/S 736 mmHg 63%
    15:00 +19°C° 0 mm 3 m/S 736 mmHg 67%
    16:00 +19°C° 0 mm 2 m/S 735 mmHg 70%
    17:00 +17°C° 0 mm 2 m/S 735 mmHg 75%
    18:00 +16°C° 0 mm 2 m/S 735 mmHg 79%
    19:00 +14°C° 0 mm 2 m/S 735 mmHg 83%
    20:00 +14°C° 0 mm 2 m/S 735 mmHg 84%
    21:00 +14°C° 0 mm 2 m/S 735 mmHg 85%
    22:00 +13°C° 0 mm 2 m/S 735 mmHg 86%
    23:00 +12°C° 0 mm 3 m/S 735 mmHg 87%

    27 Oktober, Freitag

    Zeit Temperatur Niederschläge Wind Luftdruck Luftfeuchtigkeit
    00:00 +12°C° 0 mm 3 m/S 734 mmHg 87%
    01:00 +12°C° 0 mm 3 m/S 734 mmHg 88%
    02:00 +12°C° 0 mm 3 m/S 734 mmHg 88%
    03:00 +13°C° 0 mm 4 m/S 733 mmHg 88%
    04:00 +13°C° 0 mm 4 m/S 733 mmHg 88%
    05:00 +13°C° 0 mm 5 m/S 733 mmHg 87%
    06:00 +13°C° 0 mm 5 m/S 733 mmHg 85%
    07:00 +13°C° 0 mm 5 m/S 733 mmHg 84%
    08:00 +13°C° 0,1 mm 6 m/S 733 mmHg 82%
    09:00 +13°C° 0,1 mm 6 m/S 733 mmHg 81%
    10:00 +12°C° 0,1 mm 7 m/S 733 mmHg 80%
    11:00 +13°C° 1,1 mm 6 m/S 733 mmHg 83%
    12:00 +11°C° 1,1 mm 6 m/S 733 mmHg 86%
    13:00 +11°C° 1,1 mm 6 m/S 733 mmHg 90%
    14:00 +12°C° 0,4 mm 5 m/S 733 mmHg 87%
    15:00 +10°C° 0,4 mm 5 m/S 734 mmHg 85%
    16:00 +11°C° 0,4 mm 4 m/S 734 mmHg 82%
    17:00 +10°C° 0 mm 4 m/S 734 mmHg 85%
    18:00 +9°C° 0 mm 3 m/S 735 mmHg 87%
    19:00 +8°C° 0 mm 3 m/S 735 mmHg 89%
    20:00 +8°C° 0 mm 3 m/S 736 mmHg 90%
    21:00 +7°C° 0 mm 2 m/S 736 mmHg 91%
    22:00 +7°C° 0 mm 2 m/S 736 mmHg 92%
    23:00 +7°C° 0 mm 3 m/S 736 mmHg 90%

    28 Oktober, Samstag

    Zeit Temperatur Niederschläge Wind Luftdruck Luftfeuchtigkeit
    00:00 +7°C° 0 mm 3 m/S 735 mmHg 89%
    01:00 +7°C° 0 mm 3 m/S 735 mmHg 88%
    02:00 +6°C° 0 mm 4 m/S 734 mmHg 87%
    03:00 +6°C° 0 mm 5 m/S 734 mmHg 87%
    04:00 +6°C° 0 mm 5 m/S 733 mmHg 86%
    05:00 +5°C° 0 mm 6 m/S 732 mmHg 84%
    06:00 +5°C° 0 mm 6 m/S 732 mmHg 82%
    07:00 +5°C° 0 mm 7 m/S 731 mmHg 80%
    08:00 +6°C° 0 mm 7 m/S 731 mmHg 75%
    09:00 +7°C° 0 mm 8 m/S 731 mmHg 70%
    10:00 +7°C° 0 mm 9 m/S 731 mmHg 65%
    11:00 +8°C° 0 mm 9 m/S 730 mmHg 61%
    12:00 +10°C° 0 mm 9 m/S 730 mmHg 57%
    13:00 +11°C° 0 mm 9 m/S 729 mmHg 53%
    14:00 +11°C° 0 mm 9 m/S 729 mmHg 55%
    15:00 +11°C° 0 mm 8 m/S 729 mmHg 57%
    16:00 +10°C° 0 mm 8 m/S 728 mmHg 59%
    17:00 +10°C° 0 mm 8 m/S 728 mmHg 63%
    18:00 +10°C° 0 mm 8 m/S 728 mmHg 67%
    19:00 +9°C° 0 mm 8 m/S 728 mmHg 70%
    20:00 +10°C° 0,1 mm 8 m/S 727 mmHg 74%
    21:00 +10°C° 0,1 mm 8 m/S 727 mmHg 77%
    22:00 +11°C° 0,1 mm 9 m/S 727 mmHg 80%
    23:00 +11°C° 0,2 mm 9 m/S 726 mmHg 80%
    Mehr zeigen